Weather History for EBCI - March, 2013

Change the Weather History Date:

Tuesday, March 12, 2013

  Actual Average Record
Temperature  
Mean Temperature 24 °F -  
Max Temperature 25 °F 51 °F 64 °F (1999)
Min Temperature 23 °F 37 °F 21 °F (2006)
Degree Days  
Heating Degree Days 41    
Moisture  
Dew Point 19 °F    
Average Humidity 82    
Maximum Humidity 93    
Minimum Humidity 58    
Precipitation  
Precipitation 0.01 in - - ()
Sea Level Pressure  
Sea Level Pressure 29.58 in    
Wind  
Wind Speed 19 mph ()    
Max Wind Speed 26 mph    
Max Gust Speed -    
Visibility 2.8 miles    
Events Snow    
Averages and records for this station are not official NWS values.
T = Trace of Precipitation, MM = Missing Value Source: Averaged Metar Reports

Daily Weather History Graph

Daily Weather History Graph

Search for Another Location

Airport or City:

Trip Planner

Search our weather history database for the weather conditions in past years. The results will help you decide how hot, cold, wet, or windy it might be!

Date:

Astronomy

Mar. 12, 2013 Rise Set
Actual Time 7:02 AM CET 6:42 PM CET
Civil Twilight 6:29 AM CET 7:14 PM CET
Nautical Twilight 5:52 AM CET 7:52 PM CET
Astronomical Twilight 5:13 AM CET 8:31 PM CET
Moon 6:52 AM CET (3/12) 7:52 PM CET (3/12)
Length of Visible Light 12h 44m
Length of Day
11h 39m
New Moon, 0% of the Moon is Illuminated
Mar 12
New Moon
Mar 19
First Quarter
Mar 27
Full
Apr 3
Last Quarter
Apr 10
New

Hourly Weather History & Observations

Time (CET) Temp. Windchill Dew Point Humidity Pressure Visibility Wind Dir Wind Speed Gust Speed Precip Events Conditions
12:20 AM 24.8 °F 10.0 °F 21.2 °F 86% 29.56 in 1.2 mi NE 21.9 mph - N/A Snow Light Snow
12:50 AM 24.8 °F 10.3 °F 21.2 °F 86% 29.56 in 1.2 mi NE 20.7 mph - N/A Snow Light Snow
1:00 AM 24 °F - 21 °F 84% 29.62 in 1 mi NE 20.1 mph - - Snow Light Snow
1:20 AM 24.8 °F 9.6 °F 21.2 °F 86% 29.56 in 1.1 mi NE 23.0 mph - N/A Snow Light Snow
1:50 AM 24.8 °F 9.6 °F 21.2 °F 86% 29.56 in 1.1 mi NE 23.0 mph - N/A Snow Light Snow
2:20 AM 24.8 °F 9.6 °F 21.2 °F 86% 29.56 in 1.4 mi NE 23.0 mph - N/A Snow Light Snow
2:50 AM 24.8 °F 9.6 °F 21.2 °F 86% 29.53 in 1.4 mi NE 23.0 mph - N/A Snow Light Snow
3:20 AM 23.0 °F 7.2 °F 21.2 °F 93% 29.53 in 1.4 mi NE 23.0 mph - N/A Snow Light Snow
3:50 AM 23.0 °F 7.2 °F 19.4 °F 86% 29.53 in 1.9 mi NE 23.0 mph - N/A Snow Light Snow
4:00 AM 24 °F - 20 °F 78% 29.58 in 2 mi NE 22.4 mph - - Snow Light Snow
4:20 AM 23.0 °F 6.6 °F 19.4 °F 86% 29.53 in 1.9 mi NE 25.3 mph - N/A Snow Light Snow
4:50 AM 23.0 °F 6.9 °F 21.2 °F 93% 29.53 in 1.9 mi NE 24.2 mph - N/A Snow Light Snow
5:20 AM 23.0 °F 7.2 °F 21.2 °F 93% 29.50 in 1.9 mi NE 23.0 mph - N/A Snow Light Snow
5:50 AM 23.0 °F 7.6 °F 19.4 °F 86% 29.50 in 1.9 mi NE 21.9 mph - N/A Snow Light Snow
6:20 AM 23.0 °F 8.0 °F 19.4 °F 86% 29.53 in 0.9 mi NE 20.7 mph - N/A Snow Light Snow
6:50 AM 23.0 °F 8.0 °F 21.2 °F 93% 29.53 in 0.5 mi NE 20.7 mph - N/A Snow Snow
7:00 AM 24 °F - 22 °F 88% 29.58 in 0 mi NE 20.1 mph - - Snow Snow
7:20 AM 23.0 °F 7.6 °F 21.2 °F 93% 29.53 in 0.4 mi NE 21.9 mph - N/A Snow Snow
7:50 AM 23.0 °F 8.0 °F 21.2 °F 93% 29.53 in 0.4 mi NE 20.7 mph - N/A Snow Snow
8:20 AM 23.0 °F 7.6 °F 19.4 °F 86% 29.53 in 0.6 mi NE 21.9 mph - N/A Snow Snow
8:50 AM 23.0 °F 6.9 °F 21.2 °F 93% 29.53 in 0.7 mi NE 24.2 mph - N/A Snow Light Snow
9:20 AM 23.0 °F 6.9 °F 21.2 °F 93% 29.53 in 0.6 mi NE 24.2 mph - N/A Snow Light Snow
9:50 AM 23.0 °F 6.9 °F 19.4 °F 86% 29.53 in 0.9 mi NE 24.2 mph - N/A Snow Light Snow
10:00 AM 24 °F - 21 °F 81% 29.60 in 1 mi NE 22.4 mph - - Snow Light Snow
10:20 AM 23.0 °F 6.9 °F 19.4 °F 86% 29.53 in 1.2 mi NE 24.2 mph - N/A Snow Light Snow
10:50 AM 23.0 °F 6.9 °F 19.4 °F 86% 29.56 in 1.2 mi NE 24.2 mph - N/A Snow Light Snow
11:20 AM 23.0 °F 6.9 °F 19.4 °F 86% 29.56 in 1.5 mi NE 24.2 mph - N/A Snow Light Snow
11:50 AM 24.8 °F 9.0 °F 19.4 °F 80% 29.56 in - NE 25.3 mph - N/A Snow Light Snow
12:20 PM 24.8 °F 8.7 °F 19.4 °F 80% 29.56 in 2.2 mi NE 26.5 mph - N/A Snow Light Snow
12:50 PM 24.8 °F 9.0 °F 19.4 °F 80% 29.56 in - NE 25.3 mph - N/A Snow Light Snow
1:00 PM 24 °F - 20 °F 78% 29.62 in 3 mi NE 24.6 mph - - Snow Light Snow
1:20 PM 24.8 °F 9.0 °F 19.4 °F 80% 29.56 in - NE 25.3 mph - N/A Snow Light Snow
1:50 PM 24.8 °F 9.3 °F 21.2 °F 86% 29.56 in 1.5 mi NE 24.2 mph - N/A Snow Snow
2:20 PM 24.8 °F 9.6 °F 21.2 °F 86% 29.56 in 1.2 mi NE 23.0 mph - N/A Snow Snow
2:50 PM 24.8 °F 10.0 °F 21.2 °F 86% 29.56 in 1.1 mi NE 21.9 mph - N/A Snow Snow
3:20 PM 24.8 °F 10.3 °F 21.2 °F 86% 29.59 in 1.1 mi NE 20.7 mph - N/A Snow Light Snow
3:50 PM 24.8 °F 10.7 °F 21.2 °F 86% 29.59 in 1.1 mi NNE 19.6 mph - N/A Snow Light Snow
4:00 PM 25 °F - 21 °F 79% 29.64 in 1 mi NNE 20.1 mph - - Snow Light Snow
4:20 PM 24.8 °F 11.1 °F 21.2 °F 86% 29.59 in 1.2 mi NNE 18.4 mph - N/A Snow Light Snow
4:50 PM 24.8 °F 11.9 °F 21.2 °F 86% 29.59 in 1.2 mi NE 16.1 mph - N/A Snow Light Snow
5:20 PM 24.8 °F 11.5 °F 21.2 °F 86% 29.59 in 3.7 mi NE 17.3 mph - N/A Snow Light Snow
5:50 PM 24.8 °F 12.4 °F 19.4 °F 80% 29.59 in 6.2 mi NE 15.0 mph - N/A Snow Low Drifting Snow
6:20 PM 24.8 °F 12.9 °F 17.6 °F 74% 29.62 in 6.2 mi NE 13.8 mph - N/A Snow Low Drifting Snow
6:50 PM 24.8 °F 12.4 °F 17.6 °F 74% 29.62 in 6.2 mi NE 15.0 mph - N/A Snow Low Drifting Snow
7:00 PM 26 °F - 17 °F 58% 29.68 in 19 mi NE 13.4 mph - -   Partly Cloudy
7:20 PM 24.8 °F 12.4 °F 17.6 °F 74% 29.62 in 6.2 mi NE 15.0 mph - N/A Snow Low Drifting Snow
7:50 PM 24.8 °F 14.0 °F 17.6 °F 74% 29.65 in 6.2 mi NE 11.5 mph - N/A Snow Low Drifting Snow
8:20 PM 24.8 °F 14.6 °F 15.8 °F 69% 29.65 in 6.2 mi NE 10.4 mph - N/A Snow Low Drifting Snow
8:50 PM 24.8 °F 14.0 °F 15.8 °F 69% 29.65 in 6.2 mi NNE 11.5 mph - N/A Snow Low Drifting Snow
9:20 PM 24.8 °F 14.0 °F 15.8 °F 69% 29.65 in 6.2 mi NNE 11.5 mph - N/A Snow Low Drifting Snow
9:50 PM 23.0 °F 12.4 °F 15.8 °F 74% 29.65 in 6.2 mi NNE 10.4 mph - N/A Snow Low Drifting Snow
10:00 PM 23 °F - 15 °F 61% 29.72 in 22 mi NNE 11.2 mph - - Snow Low Drifting Snow
10:20 PM 23.0 °F 12.4 °F 14.0 °F 68% 29.65 in 6.2 mi NNE 10.4 mph - N/A Snow Low Drifting Snow
10:50 PM 23.0 °F 13.1 °F 14.0 °F 68% 29.68 in 6.2 mi NNE 9.2 mph - N/A Snow Low Drifting Snow
11:20 PM 23.0 °F 13.1 °F 15.8 °F 74% 29.68 in 6.2 mi NNE 9.2 mph - N/A Snow Low Drifting Snow
11:50 PM 23.0 °F 12.4 °F 14.0 °F 68% 29.68 in - NNE 10.4 mph - N/A   Clear